Fort Collins, CO

11:30 PM MDT on March 25, 2017 (GMT -0600)
Fort Collins-Loveland Municipal

Weather History for KFNL - December, 2012

Change the Weather History Date:

Sunday, December 2, 2012

  Actual Average Record
Temperature  
Mean Temperature 45 °F -  
Max Temperature 60 °F - 66 °F (2008)
Min Temperature 30 °F - 3 °F (2004)
Degree Days  
Heating Degree Days 20    
Month to date heating degree days  
Cooling Degree Days 0    
Month to date cooling degree days  
Moisture  
Dew Point 24 °F    
Average Humidity 52    
Maximum Humidity 80    
Minimum Humidity 27    
Precipitation  
Precipitation 0.00 in - 2.76 in (2002)
Sea Level Pressure  
Sea Level Pressure 29.84 in    
Wind  
Wind Speed 5 mph (NE)    
Max Wind Speed 10 mph    
Max Gust Speed -    
Visibility 10 miles    
Events      
T = Trace of Precipitation, MM = Missing Value Source: NWS Daily Summary

Daily Weather History Graph

Daily Weather History Graph

Search for Another Location

Airport or City:

Trip Planner

Search our weather history database for the weather conditions in past years. The results will help you decide how hot, cold, wet, or windy it might be!

Date:

Astronomy

Dec. 02, 2012 Rise Set
Actual Time 7:05 AM MST 4:33 PM MST
Civil Twilight 6:35 AM MST 5:04 PM MST
Nautical Twilight 6:01 AM MST 5:37 PM MST
Astronomical Twilight 5:28 AM MST 6:10 PM MST
Moon 8:24 PM MST (12/2) 9:56 AM MST (12/2)
Length of Visible Light 10h 28m
Length of Day
9h 28m
Waning Gibbous, 85% of the Moon is Illuminated
Dec 2
Waning Gibbous
Dec 6
Last Quarter
Dec 13
New
Dec 19
First Quarter
Dec 28
Full

Hourly Weather History & Observations

Time (MST) Temp. Windchill Dew Point Humidity Pressure Visibility Wind Dir Wind Speed Gust Speed Precip Events Conditions
12:15 AM 37.4 °F 32.8 °F 26.6 °F 65% 30.01 in 10.0 mi North 5.8 mph - N/A   Clear
12:35 AM 37.4 °F 32.1 °F 24.8 °F 60% 30.01 in 10.0 mi North 6.9 mph - N/A   Clear
12:55 AM 35.6 °F 31.7 °F 24.8 °F 65% 30.01 in 10.0 mi NNW 4.6 mph - N/A   Clear
1:15 AM 33.8 °F 30.8 °F 26.6 °F 75% 30.00 in 10.0 mi North 3.5 mph - N/A   Clear
1:35 AM 35.6 °F - 24.8 °F 65% 30.00 in 10.0 mi Calm Calm - N/A   Clear
2:15 AM 35.6 °F 28.6 °F 23.0 °F 60% 30.00 in 10.0 mi NNE 9.2 mph - N/A   Clear
2:55 AM 33.8 °F - 26.6 °F 75% 30.00 in 10.0 mi Calm Calm - N/A   Clear
3:15 AM 33.8 °F 27.0 °F 23.0 °F 65% 30.00 in 10.0 mi NNW 8.1 mph - N/A   Clear
3:35 AM 33.8 °F 30.8 °F 21.2 °F 60% 30.00 in 10.0 mi North 3.5 mph - N/A   Clear
3:55 AM 30.2 °F 24.3 °F 21.2 °F 69% 30.00 in 10.0 mi South 5.8 mph - N/A   Clear
4:15 AM 32.0 °F - 21.2 °F 64% 30.00 in 10.0 mi Calm Calm - N/A   Clear
4:55 AM 33.8 °F - 24.8 °F 70% 30.00 in 10.0 mi Calm Calm - N/A   Clear
5:15 AM 32.0 °F 25.6 °F 24.8 °F 75% 30.00 in 10.0 mi SW 6.9 mph - N/A   Clear
5:35 AM 30.2 °F 26.7 °F 24.8 °F 80% 29.99 in 10.0 mi SSE 3.5 mph - N/A   Clear
5:55 AM 35.6 °F 29.9 °F 23.0 °F 60% 29.99 in 10.0 mi South 6.9 mph - N/A   Clear
6:15 AM 30.2 °F 21.9 °F 21.2 °F 69% 29.99 in 10.0 mi SSE 9.2 mph - N/A   Clear
6:35 AM 30.2 °F 26.7 °F 19.4 °F 64% 29.99 in 10.0 mi South 3.5 mph - N/A   Clear
7:15 AM 33.8 °F - 19.4 °F 56% 29.97 in 10.0 mi Calm Calm - N/A   Clear
7:35 AM 33.8 °F - 21.2 °F 60% 29.97 in 10.0 mi Calm Calm - N/A   Clear
8:15 AM 33.8 °F 27.7 °F 21.2 °F 60% 29.96 in 10.0 mi NE 6.9 mph - N/A   Clear
8:35 AM 35.6 °F 31.7 °F 23.0 °F 60% 29.96 in 10.0 mi NE 4.6 mph - N/A   Clear
8:55 AM 35.6 °F 31.7 °F 24.8 °F 65% 29.96 in 10.0 mi NE 4.6 mph - N/A   Clear
9:15 AM 35.6 °F - 23.0 °F 60% 29.95 in 10.0 mi Calm Calm - N/A   Clear
9:55 AM 37.4 °F - 24.8 °F 60% 29.94 in 10.0 mi Calm Calm - N/A   Clear
10:15 AM 39.2 °F - 24.8 °F 56% 29.93 in 10.0 mi Calm Calm - N/A   Clear
10:35 AM 39.2 °F - 23.0 °F 52% 29.92 in 10.0 mi Calm Calm - N/A   Clear
10:55 AM 42.8 °F 40.1 °F 24.8 °F 49% 29.90 in 10.0 mi North 4.6 mph - N/A   Clear
11:15 AM 44.6 °F 39.2 °F 26.6 °F 49% 29.89 in 10.0 mi North 10.4 mph - N/A   Clear
11:35 AM 46.4 °F 43.5 °F 24.8 °F 43% 29.88 in 10.0 mi NNE 5.8 mph - N/A   Clear
11:55 AM 48.2 °F - 24.8 °F 40% 29.85 in 10.0 mi NW 3.5 mph - N/A   Clear
12:15 PM 50.0 °F - 24.8 °F 37% 29.84 in 10.0 mi Calm Calm - N/A   Clear
12:55 PM 57.2 °F - 24.8 °F 29% 29.80 in 10.0 mi East 4.6 mph - N/A   Clear
1:15 PM 57.2 °F - 26.6 °F 31% 29.78 in 10.0 mi SE 8.1 mph - N/A   Clear
1:35 PM 57.2 °F - 26.6 °F 31% 29.77 in 10.0 mi SE 6.9 mph - N/A   Clear
1:55 PM 57.2 °F - 28.4 °F 33% 29.76 in 10.0 mi ESE 8.1 mph - N/A   Clear
2:15 PM 57.2 °F - 28.4 °F 33% 29.75 in 10.0 mi ENE 6.9 mph - N/A   Clear
2:35 PM 57.2 °F - 26.6 °F 31% 29.74 in 10.0 mi SE 8.1 mph - N/A   Clear
3:15 PM 59.0 °F - 26.6 °F 29% 29.73 in 10.0 mi SSE 8.1 mph - N/A   Clear
3:35 PM 60.8 °F - 26.6 °F 27% 29.72 in 10.0 mi SSE 10.4 mph - N/A   Clear
3:55 PM 55.4 °F - 26.6 °F 33% 29.72 in 10.0 mi Calm Calm - N/A   Clear
4:15 PM 53.6 °F - 26.6 °F 35% 29.72 in 10.0 mi NNE 8.1 mph - N/A   Clear
4:35 PM 50.0 °F - 26.6 °F 40% 29.72 in 10.0 mi East 9.2 mph - N/A   Clear
4:55 PM 46.4 °F 44.3 °F 26.6 °F 46% 29.71 in 10.0 mi East 4.6 mph - N/A   Clear
5:15 PM 44.6 °F 41.4 °F 26.6 °F 49% 29.71 in 10.0 mi North 5.8 mph - N/A   Clear
5:35 PM 42.8 °F 40.1 °F 26.6 °F 53% 29.71 in 10.0 mi NNW 4.6 mph - N/A   Clear
5:55 PM 42.8 °F - 26.6 °F 53% 29.68 in 10.0 mi Calm Calm - N/A   Clear
6:55 PM 42.8 °F 38.6 °F 24.8 °F 49% 29.68 in 10.0 mi NE 6.9 mph - N/A   Clear
7:15 PM 42.8 °F 39.3 °F 24.8 °F 49% 29.67 in 10.0 mi North 5.8 mph - N/A   Clear
7:35 PM 42.8 °F 40.1 °F 24.8 °F 49% 29.66 in 10.0 mi NE 4.6 mph - N/A   Clear
7:55 PM 42.8 °F 39.3 °F 23.0 °F 46% 29.67 in 10.0 mi NNW 5.8 mph - N/A   Clear
8:35 PM 37.4 °F - 24.8 °F 60% 29.66 in 10.0 mi Calm Calm - N/A   Clear
8:55 PM 39.2 °F - 23.0 °F 52% 29.65 in 10.0 mi Calm Calm - N/A   Clear
9:15 PM 39.2 °F 34.2 °F 24.8 °F 56% 29.65 in 10.0 mi NNE 6.9 mph - N/A   Clear
9:35 PM 41.0 °F 34.7 °F 23.0 °F 49% 29.65 in 10.0 mi NNE 10.4 mph - N/A   Clear
9:55 PM 42.8 °F 39.3 °F 23.0 °F 46% 29.65 in 10.0 mi NE 5.8 mph - N/A   Clear
10:15 PM 42.8 °F 38.0 °F 21.2 °F 42% 29.64 in 10.0 mi NW 8.1 mph - N/A   Clear
10:35 PM 44.6 °F 42.2 °F 23.0 °F 43% 29.65 in 10.0 mi North 4.6 mph - N/A   Clear
10:55 PM 46.4 °F 42.4 °F 23.0 °F 40% 29.66 in 10.0 mi West 8.1 mph - N/A   Clear
11:15 PM 44.6 °F - 23.0 °F 43% 29.66 in 10.0 mi Calm Calm - N/A   Clear
11:55 PM 42.8 °F 39.3 °F 23.0 °F 46% 29.66 in 10.0 mi NNW 5.8 mph - N/A   Clear